Theta_e
322 324 328 328 328 327 328 329 329 328 323 325 328 328 328 327 326 327 330 333 335 335 336 335 336 335 335 335 335 335 335 334 334 333 333 333 332 331 333 331 332 330 329 328
323 325 323 325 326 327 328 330 330 323 322 322 327 328 327 327 327 326 327 332 334 335 335 334 335 335 334 334 334 333 333 333 333 334 335 333 331 330 330 331 329 329 326 321
323 321 322 324 326 328 327 328 327 327 323 322 326 328 327 327 326 323 322 327 333 335 332 327 326 327 328 328 330 332 332 333 333 333 333 332 332 330 328 325 321 313 310 310
319 319 320 322 322 324 328 325 326 324 326 330 325 334 328 328 327 320 321 325 332 331 325 321 326 327 327 328 330 332 332 332 332 332 331 331 329 326 320 314 309 308 306 307
317 317 319 322 321 321 323 324 325 325 326 325 326 331 329 328 329 320 319 323 325 323 318 317 320 322 324 324 326 326 327 327 326 325 323 322 319 310 307 307 306 305 304 304
314 315 316 318 319 320 321 322 321 322 325 329 325 328 328 329 327 327 316 316 315 315 313 311 314 315 316 316 316 316 316 313 310 308 308 307 306 304 304 304 305 304 303 304
312 314 316 318 321 321 323 323 326 326 326 327 323 327 326 325 323 321 314 312 311 310 307 305 310 310 309 310 306 306 306 306 305 304 304 305 308 310 311 312 311 311 311 312
314 314 317 318 318 321 322 322 323 323 326 325 318 328 325 315 316 315 312 311 309 307 303 303 304 305 305 305 305 307 309 310 311 311 312 311 312 312 312 313 313 312 307 303
317 317 314 315 317 318 320 321 317 318 313 324 324 323 318 314 313 311 310 309 307 305 303 303 306 308 310 310 311 311 310 310 309 310 310 310 311 309 308 308 307 303 301 297
315 318 312 314 315 315 318 317 320 320 325 325 325 323 324 316 313 310 309 309 307 306 305 307 310 311 311 311 311 311 311 311 311 311 309 307 307 306 305 302 299 295 293 294
313 315 313 313 315 317 317 319 318 319 321 325 324 321 311 317 314 311 309 309 308 306 307 309 310 310 311 311 312 312 311 307 306 303 303 301 296 294 293 293 293 293 294 294
312 313 314 314 309 309 313 316 318 319 322 316 315 320 307 312 313 311 310 309 306 307 308 309 310 309 310 311 310 308 303 302 302 299 295 293 293 292 292 293 293 294 294 293
311 313 315 313 312 309 313 313 316 317 315 315 320 319 307 307 313 311 310 307 307 308 308 308 308 309 309 307 304 302 301 298 295 294 293 293 292 292 293 294 293 292 291 290
310 312 315 315 314 314 314 314 314 317 319 318 315 315 310 309 312 312 310 307 308 308 309 310 309 308 305 300 298 296 295 294 293 293 292 292 292 293 293 292 291 290 289 288
309 312 311 310 311 314 314 313 314 316 316 318 317 315 314 312 313 312 309 307 305 306 309 307 305 301 299 297 295 295 294 293 292 292 291 292 292 292 291 290 289 289 288 287
309 312 309 309 309 311 314 314 313 314 315 316 317 314 310 309 313 312 309 306 304 308 306 299 300 298 296 295 295 294 293 292 291 291 292 292 292 290 290 289 288 287 286 285
309 309 310 315 308 311 313 312 314 314 314 316 316 314 308 309 311 310 309 306 305 307 300 297 298 296 296 295 294 293 292 291 291 291 292 291 290 290 289 288 286 285 285 284
307 309 310 309 308 313 311 304 309 313 313 313 313 309 308 308 308 308 307 306 304 301 298 295 296 296 296 295 293 292 291 290 291 291 291 290 290 289 287 286 285 285 284 283
304 309 310 312 311 312 310 304 309 311 312 311 312 312 307 306 305 305 306 305 302 298 297 296 296 296 296 294 292 291 290 290 291 290 290 289 289 287 286 285 284 284 283 282
303 305 311 307 312 313 308 303 304 309 311 305 311 312 307 305 307 307 303 302 299 298 298 297 297 297 295 293 291 290 290 290 290 289 289 288 287 286 285 284 283 283 281 281
307 307 310 310 312 315 303 301 302 311 310 301 301 308 307 306 309 308 302 299 299 299 299 298 298 296 294 292 290 290 290 290 289 289 288 287 286 285 283 283 282 281 281 281
307 309 310 308 310 311 300 300 307 305 300 299 300 306 306 303 303 303 300 299 299 298 297 298 297 295 292 291 290 289 289 289 289 288 287 285 284 283 283 282 282 280 280 280
304 307 309 309 310 300 299 302 303 301 300 299 299 303 304 302 302 301 298 298 298 298 299 297 294 293 292 290 289 290 290 289 288 287 285 284 283 283 282 282 281 280 280 279
296 295 298 299 304 301 299 298 299 300 299 299 300 300 302 303 302 300 299 298 298 298 296 296 295 293 291 289 290 290 289 288 286 285 284 284 283 282 282 281 280 279 279 278
297 294 298 298 298 296 297 298 297 298 299 298 300 299 300 300 301 301 299 299 298 297 297 295 293 291 289 289 289 289 288 287 286 285 284 283 282 282 281 280 279 278 278 277
293 296 297 301 298 299 298 296 297 297 299 299 300 300 299 301 302 301 299 299 299 297 296 294 291 289 289 290 289 289 287 286 285 284 283 282 282 281 280 279 278 277 277 277
Wind_Speed
5 5 6 11 14 2 5 10 11 5 2 9 19 17 17 19 11 11 8 9 10 11 12 12 14 14 12 11 10 10 9 9 9 9 9 10 9 12 12 13 12 9 10 12
4 3 15 9 15 6 5 10 5 2 1 2 19 21 15 16 12 13 8 8 11 14 12 11 10 11 10 9 9 8 9 12 12 11 11 12 13 13 13 11 9 8 8 10
12 6 4 7 5 9 4 3 5 3 6 4 5 6 14 15 17 8 6 2 9 14 12 11 11 12 13 13 12 13 13 14 14 15 16 16 17 15 11 6 3 3 6 7
10 5 7 4 2 0 6 6 1 5 3 3 4 3 13 16 15 10 7 6 10 14 13 10 13 14 15 15 15 15 15 14 14 13 13 14 12 9 4 4 5 7 9 10
5 6 7 9 9 6 1 4 7 5 6 3 5 5 8 10 18 16 10 10 11 11 11 12 12 12 12 12 13 13 13 13 11 10 10 9 11 12 12 10 9 9 9 11
8 1 6 10 2 13 13 9 8 2 2 4 11 7 6 7 10 9 14 10 13 14 14 14 16 16 16 16 15 15 15 18 19 18 18 17 18 17 14 11 8 7 8 11
10 7 0 3 5 4 11 10 2 1 4 5 3 10 10 3 1 3 17 15 14 15 16 16 20 21 21 23 23 23 23 26 24 22 19 17 14 10 9 9 11 15 19 24
12 8 9 7 7 5 13 11 5 7 6 4 2 8 2 4 4 12 18 18 17 17 17 20 27 30 28 28 27 20 18 18 16 12 9 9 9 12 14 15 13 12 16 19
8 4 3 4 3 2 5 3 5 1 1 2 5 4 4 7 10 17 21 21 21 22 22 28 29 26 22 20 16 14 11 10 7 9 10 8 7 6 5 9 12 14 15 15
3 4 2 4 0 1 3 13 2 1 5 6 6 6 6 10 12 14 17 23 23 23 22 24 25 23 19 15 11 6 4 6 8 9 5 5 6 6 8 10 8 8 9 11
4 2 3 3 4 10 3 3 3 2 3 2 2 2 3 9 14 16 22 23 24 22 25 24 22 16 13 10 7 4 4 4 1 1 3 4 2 1 1 3 6 9 12 15
3 2 3 1 1 3 4 9 10 6 4 2 1 2 1 1 16 21 24 20 21 24 24 21 17 13 6 4 6 9 7 4 4 3 2 1 2 3 5 8 10 12 14 15
7 3 4 3 2 1 4 4 3 3 3 5 3 1 2 4 13 21 23 20 25 22 21 19 14 13 14 14 12 10 8 6 5 4 3 3 4 6 8 10 11 12 12 12
4 4 4 2 3 9 6 7 8 6 5 4 8 6 5 8 14 21 22 22 25 27 25 21 19 19 19 15 11 10 9 8 7 5 4 4 6 7 9 10 11 12 12 13
2 4 4 1 2 3 7 12 17 17 14 8 5 10 7 12 17 24 25 23 27 28 27 22 24 21 18 16 14 12 10 8 6 5 5 5 7 9 11 12 13 13 12 11
4 1 3 1 1 2 2 8 13 14 13 15 17 14 2 12 17 24 28 27 28 31 27 22 23 22 19 16 13 11 9 8 7 6 6 6 8 10 11 11 11 10 10 10
5 3 4 3 3 3 6 13 15 11 11 17 12 13 10 13 21 28 31 33 35 35 26 24 24 22 18 15 13 11 10 9 8 7 6 7 9 11 11 10 10 9 9 9
4 2 1 2 2 5 2 1 10 17 11 15 10 1 11 13 17 20 24 27 26 28 26 24 25 22 18 16 13 11 10 10 8 6 7 9 11 12 11 10 10 9 8 8
3 2 2 3 6 8 3 4 5 9 8 17 15 10 9 8 11 11 18 23 24 24 24 26 23 20 17 14 13 13 11 9 7 7 9 11 12 11 11 10 9 8 8 7
2 2 2 2 4 4 4 3 2 5 5 4 15 17 15 19 7 7 23 24 26 27 28 26 22 18 17 16 14 12 10 9 9 10 11 12 12 11 11 10 9 8 7 8
4 3 10 7 6 5 4 7 4 5 0 3 3 13 21 12 8 9 28 27 29 30 28 25 21 20 19 15 13 12 11 11 11 11 12 12 12 11 10 10 9 9 9 11
7 7 4 3 4 8 11 5 6 2 1 3 5 7 19 12 9 19 28 31 32 32 29 24 24 22 16 14 14 12 12 11 12 12 12 12 11 11 11 11 12 11 12 14
3 3 2 7 4 2 17 4 9 6 5 6 5 10 17 19 17 21 25 32 30 29 29 28 21 17 16 15 13 12 12 12 12 12 12 12 12 12 13 13 13 13 14 16
4 4 3 2 7 13 12 15 18 10 9 10 7 10 20 21 19 21 26 32 33 33 27 20 18 17 15 14 13 13 12 12 12 13 13 13 13 14 14 15 14 14 15 16
1 7 4 5 12 11 18 22 15 15 14 9 6 12 16 17 21 25 31 33 29 24 22 20 17 16 15 14 13 12 12 12 13 14 14 14 15 15 15 15 15 15 16 17
12 7 7 6 5 5 2 4 17 17 12 10 10 14 18 18 21 21 23 23 23 22 20 19 18 17 14 14 13 13 12 13 15 15 15 16 16 17 17 17 17 17 18 19
Wind_Direction
183 206 214 197 204 228 179 186 208 199 281 238 221 236 240 249 240 254 247 213 187 182 179 179 184 187 187 190 195 196 198 203 204 215 219 224 225 225 240 257 260 253 274 293
172 268 204 208 210 165 182 173 178 115 106 77 230 233 243 251 245 245 249 210 191 173 158 156 163 174 181 183 185 188 196 202 210 209 216 219 226 233 249 249 246 273 290 301
240 133 212 129 163 183 177 159 164 191 146 219 254 256 251 239 235 213 204 233 190 178 167 151 149 155 165 173 181 197 208 216 223 225 228 233 236 242 236 224 238 5 338 1
240 173 181 168 160 167 169 170 172 109 195 192 229 290 230 227 212 204 196 168 177 139 145 158 173 176 176 175 187 198 205 208 213 221 219 224 229 219 173 106 82 60 41 24
172 216 201 209 190 162 110 182 132 188 171 40 191 253 239 207 210 184 169 142 147 144 141 152 158 161 165 169 175 177 187 179 173 169 157 153 141 120 103 90 75 60 43 27
224 17 227 228 121 176 143 122 73 64 21 231 211 209 237 210 236 179 143 150 143 138 130 135 145 143 142 139 137 137 141 130 124 122 121 121 115 107 102 88 64 49 21 11
195 201 170 259 141 192 178 160 90 233 189 224 301 208 245 132 283 164 154 156 147 139 136 137 138 136 134 127 120 118 120 116 111 105 99 89 80 71 48 33 13 351 342 331
181 202 191 171 214 176 200 192 185 221 211 201 4 225 145 13 86 135 141 146 143 136 131 130 131 126 122 119 116 105 96 91 90 82 59 38 29 12 0 339 321 308 316 319
188 144 70 23 18 223 154 206 32 266 59 194 194 237 219 128 126 136 141 146 142 137 133 131 126 122 121 118 118 108 84 70 32 17 11 340 329 348 322 304 311 313 312 309
143 125 356 80 181 54 279 138 115 253 203 233 179 247 225 186 163 156 154 151 147 142 139 141 138 135 130 125 122 97 356 300 283 269 267 273 275 288 292 296 298 298 299 312
267 264 104 140 215 205 174 171 160 271 290 275 249 198 21 187 174 166 161 158 152 150 150 149 146 145 145 150 155 187 208 180 105 285 288 284 319 2 308 311 315 316 320 320
200 5 137 89 35 346 330 227 209 223 169 252 47 268 353 352 168 169 165 153 159 161 157 157 159 162 151 168 161 164 161 181 222 244 254 287 304 301 309 315 316 317 320 320
168 200 143 151 189 207 214 195 231 278 347 195 204 251 343 195 172 174 163 158 167 168 164 161 150 164 168 171 177 178 184 189 193 198 222 247 277 297 304 311 317 323 325 324
172 192 270 234 40 129 182 177 186 183 218 215 235 290 170 184 184 173 164 168 172 169 163 159 171 184 187 181 178 185 185 189 196 206 231 268 284 298 312 322 330 331 333 334
218 185 211 16 55 184 182 186 197 211 223 233 256 242 261 189 182 171 176 171 174 173 173 184 187 185 186 184 184 192 193 196 203 219 246 271 300 319 330 333 328 327 327 331
192 185 143 281 284 244 226 186 198 220 223 236 252 263 241 180 179 173 179 178 179 181 186 187 189 189 185 188 192 197 199 204 215 233 257 291 309 316 318 318 318 322 328 332
161 159 159 160 337 343 273 220 202 204 214 220 228 243 164 176 188 187 184 186 184 188 185 187 189 188 190 194 202 202 205 214 223 240 271 297 309 308 310 318 322 326 330 333
145 119 4 114 188 224 47 356 246 226 239 225 244 300 198 206 199 193 194 188 185 184 183 185 187 189 194 202 206 208 213 220 230 255 288 301 300 303 313 319 320 324 323 319
34 172 147 194 219 324 214 214 175 189 259 232 234 218 198 174 164 190 191 191 184 181 184 188 188 193 200 207 211 214 220 231 250 276 281 288 299 309 314 311 313 312 304 307
124 311 277 171 244 242 50 142 131 159 268 39 218 220 174 157 188 192 185 179 179 188 190 188 192 199 209 212 215 220 227 239 254 265 283 298 303 304 303 301 300 299 304 318
158 176 225 216 239 280 130 148 156 188 43 333 294 231 183 193 220 198 179 174 190 189 188 190 198 208 212 213 216 221 228 242 262 281 293 294 295 297 295 298 303 306 309 310
183 178 181 156 219 255 150 127 209 68 20 315 303 232 188 193 162 166 175 183 186 185 185 195 204 208 209 213 219 224 238 260 274 283 289 293 295 297 303 304 303 299 297 303
225 233 206 213 215 122 191 243 216 255 291 313 291 197 188 182 172 177 180 184 182 185 194 202 201 205 212 217 223 236 251 263 277 286 291 293 297 299 298 296 291 288 294 304
233 205 250 305 224 230 235 237 241 252 279 286 287 200 196 186 179 177 178 180 186 194 195 198 207 214 217 220 229 241 258 270 280 287 291 293 292 292 292 288 284 286 297 308
319 161 188 262 281 275 268 242 241 245 256 265 241 199 192 195 184 186 187 190 191 193 197 206 213 217 217 223 238 252 264 275 284 289 290 290 289 289 287 283 283 289 299 306
189 191 187 215 233 218 277 278 230 225 230 233 214 194 194 199 199 192 187 189 192 197 204 211 214 216 222 233 246 261 274 286 288 289 287 286 286 286 285 284 284 288 296 306